Change the Weather History Date:

Sunday, July 14, 2013

  Actual Average Record
Temperature  
Mean Temperature 65 °F 55 °F  
Max Temperature 70 °F 60 °F 77 °F (1949)
Min Temperature 60 °F 50 °F 35 °F (1959)
Degree Days  
Heating Degree Days 0 10  
Month to date heating degree days 122 155  
Since 1 June heating degree days 547 736  
Since 1 July heating degree days 122 155  
Cooling Degree Days 0    
Month to date cooling degree days 5  
Year to date cooling degree days 13  
Since 1 June cooling degree days 13  
Growing Degree Days 16 (Base 50)    
Moisture  
Dew Point 57 °F    
Average Humidity 0    
Maximum Humidity 0    
Minimum Humidity 0    
Precipitation  
Precipitation 0.00 in 0.04 in 0.50 in (1931)
Month to date precipitation 0.86 0.52  
Year to date precipitation 5.37 3.77  
Snow  
Snow 0.00 in 0.00 in T in (1976)
Month to date snowfall 0.0  
Since 1 June snowfall 0.0 0.0  
Since 1 July snowfall 0.0  
Snow Depth -    
Sea Level Pressure  
Sea Level Pressure 29.96 in    
Wind  
Wind Speed 15 mph (SSE)    
Max Wind Speed 29 mph    
Max Gust Speed 36 mph    
Visibility 10 miles    
Events Rain    
T = Trace of Precipitation, MM = Missing Value Source: NWS Daily Summary

Daily Weather History Graph

Daily Weather History Graph

Search for Another Location

Airport or City:

Trip Planner

Search our weather history database for the weather conditions in past years. The results will help you decide how hot, cold, wet, or windy it might be!

Date:

Astronomy

Jul. 14, 2013 Rise Set
Actual Time 3:54 AM AKDT 1:52 AM AKDT
Civil Twilight Sun does not rise Sun does not rise
Nautical Twilight Sun does not rise Sun does not rise
Astronomical Twilight Sun does not rise Sun does not rise
Moon 2:41 PM AKDT (7/14) 12:44 AM AKDT (7/14)
Length of Visible Light 24h 00m
Length of Day
21h 57m
Waxing Crescent, 36% of the Moon is Illuminated
Jul 14
Waxing Crescent
Jul 15
First Quarter
Jul 22
Full
Jul 29
Last Quarter
Aug 6
New

Hourly Weather History & Observations

Time (AKDT) Temp. Dew Point Humidity Pressure Visibility Wind Dir Wind Speed Gust Speed Precip Events Conditions
12:53 AM 70.0 °F 54.0 °F 57% 29.91 in 10.0 mi SSE 12.7 mph - N/A   Partly Cloudy
1:53 AM 66.0 °F 55.0 °F 68% 29.91 in 10.0 mi SSE 11.5 mph - N/A   Partly Cloudy
2:53 AM 63.0 °F 55.9 °F 78% 29.92 in 10.0 mi SSE 11.5 mph - N/A   Partly Cloudy
3:53 AM 63.0 °F 55.9 °F 78% 29.92 in 10.0 mi South 8.1 mph - N/A   Scattered Clouds
4:53 AM 61.0 °F 57.0 °F 87% 29.93 in 10.0 mi SSE 12.7 mph - N/A   Scattered Clouds
5:53 AM 61.0 °F 55.9 °F 83% 29.93 in 10.0 mi SE 9.2 mph - N/A   Scattered Clouds
6:53 AM 61.0 °F 55.9 °F 83% 29.94 in 10.0 mi SE 13.8 mph - N/A   Mostly Cloudy
7:53 AM 63.0 °F 55.0 °F 75% 29.94 in 10.0 mi SSE 12.7 mph - N/A   Overcast
8:53 AM 64.0 °F 55.9 °F 75% 29.94 in 10.0 mi SE 15.0 mph - N/A   Mostly Cloudy
9:53 AM 66.9 °F 55.0 °F 66% 29.94 in 10.0 mi SE 17.3 mph - N/A   Mostly Cloudy
10:53 AM 70.0 °F 54.0 °F 57% 29.94 in 10.0 mi SSE 17.3 mph - N/A   Mostly Cloudy
11:53 AM 68.0 °F 54.0 °F 61% 29.95 in 10.0 mi SSE 18.4 mph 24.2 mph N/A   Mostly Cloudy
12:53 PM 70.0 °F 57.0 °F 63% 29.96 in 10.0 mi SSE 20.7 mph 27.6 mph N/A   Mostly Cloudy
1:53 PM 66.9 °F 57.0 °F 70% 29.96 in 10.0 mi South 24.2 mph 29.9 mph N/A   Mostly Cloudy
2:53 PM 66.9 °F 57.0 °F 70% 29.97 in 10.0 mi South 24.2 mph 31.1 mph N/A   Overcast
3:53 PM 64.0 °F 60.1 °F 87% 29.98 in 10.0 mi SSE 20.7 mph - 0.00 in Rain Light Rain
4:53 PM 64.0 °F 59.0 °F 84% 29.98 in 10.0 mi South 18.4 mph - 0.00 in Rain Light Rain
5:53 PM 64.0 °F 57.9 °F 80% 29.98 in 10.0 mi SSE 23.0 mph - 0.00 in Rain Light Rain
6:53 PM 64.0 °F 57.9 °F 80% 29.99 in 10.0 mi SSE 18.4 mph - 0.00 in Rain Light Rain
7:53 PM 62.1 °F 57.9 °F 86% 30.01 in 10.0 mi South 19.6 mph - 0.00 in Rain Light Rain
8:53 PM 62.1 °F 57.9 °F 86% 30.00 in 10.0 mi South 16.1 mph - 0.02 in Rain Light Rain
9:53 PM 61.0 °F 57.0 °F 87% 30.01 in 10.0 mi SSE 15.0 mph - 0.03 in Rain Light Rain
10:53 PM 60.1 °F 57.0 °F 90% 30.01 in 10.0 mi SSE 17.3 mph - 0.01 in Rain Light Rain
11:53 PM 60.1 °F 57.0 °F 90% 30.01 in 10.0 mi SSE 16.1 mph - 0.01 in Rain Light Rain